| time (UTC) | temp F | wind direction | speed MPH | gust MPH | rain 1hr in | rain 24hr in | rain mn in | humidity % | barometer mb |
| 20260504023926 | 57 | 201 | 2.0 | 6.0 | 0.00 | 0.00 | 0.00 | 46 | 1012.2 |
| 20260504023428 | 57 | 238 | 1.0 | 6.0 | 0.00 | 0.00 | 0.00 | 44 | 1012.2 |
| 20260504022927 | 56 | 188 | 0.0 | 3.0 | 0.00 | 0.00 | 0.00 | 43 | 1012.2 |
| 20260504022428 | 56 | 226 | 0.0 | 2.0 | 0.00 | 0.00 | 0.00 | 44 | 1012.2 |
| 20260504021418 | 56 | 211 | 0.0 | 0.0 | 0.00 | 0.00 | 0.00 | 53 | 1012.2 |
| 20260504020919 | 56 | 211 | 0.0 | 0.0 | 0.00 | 0.00 | 0.00 | 47 | 1012.1 |
| 20260504020416 | 56 | 211 | 0.0 | 0.0 | 0.00 | 0.00 | 0.00 | 45 | 1012.0 |
| 20260504015406 | 57 | 231 | 0.0 | 0.0 | 0.00 | 0.00 | 0.00 | 51 | 1012.1 |
| 20260504014905 | 57 | 232 | 0.0 | 0.0 | 0.00 | 0.00 | 0.00 | 46 | 1012.0 |
| 20260504013901 | 58 | 232 | 0.0 | 0.0 | 0.00 | 0.00 | 0.00 | 40 | 1011.9 |
| 20260504013401 | 58 | 232 | 0.0 | 0.0 | 0.00 | 0.00 | 0.00 | 41 | 1011.9 |
| 20260504012858 | 58 | 232 | 0.0 | 0.0 | 0.00 | 0.00 | 0.00 | 38 | 1011.9 |
| 20260504012358 | 58 | 232 | 0.0 | 0.0 | 0.00 | 0.00 | 0.00 | 37 | 1011.9 |
| 20260504011859 | 58 | 263 | 0.0 | 0.0 | 0.00 | 0.00 | 0.00 | 38 | 1011.8 |
| 20260504011357 | 58 | 231 | 0.0 | 0.0 | 0.00 | 0.00 | 0.00 | 40 | 1011.8 |
| 20260504010355 | 59 | 232 | 0.0 | 1.0 | 0.00 | 0.00 | 0.00 | 35 | 1011.8 |
| 20260504005848 | 59 | 232 | 0.0 | 1.0 | 0.00 | 0.00 | 0.00 | 35 | 1011.8 |
| 20260504004845 | 60 | 194 | 0.0 | 3.0 | 0.00 | 0.00 | 0.00 | 33 | 1011.7 |
| 20260504004343 | 61 | 303 | 0.0 | 3.0 | 0.00 | 0.00 | 0.00 | 36 | 1011.6 |
| 20260504003341 | 61 | 302 | 0.0 | 4.0 | 0.00 | 0.00 | 0.00 | 32 | 1011.5 |
| 20260504002839 | 61 | 338 | 0.0 | 4.0 | 0.00 | 0.00 | 0.00 | 32 | 1011.5 |
| 20260504002339 | 61 | 305 | 0.0 | 4.0 | 0.00 | 0.00 | 0.00 | 32 | 1011.4 |
| 20260504001839 | 61 | 290 | 0.0 | 3.0 | 0.00 | 0.00 | 0.00 | 33 | 1011.4 |
| 20260504001337 | 61 | 332 | 0.0 | 3.0 | 0.00 | 0.00 | 0.00 | 31 | 1011.4 |
| 20260504000838 | 61 | 320 | 0.0 | 2.0 | 0.00 | 0.00 | 0.00 | 31 | 1011.4 |
| 20260503234832 | 62 | 250 | 0.0 | 5.0 | 0.00 | 0.00 | 0.00 | 30 | 1011.1 |
| 20260503234332 | 63 | 288 | 1.0 | 5.0 | 0.00 | 0.00 | 0.00 | 29 | 1011.1 |
| 20260503233327 | 64 | 296 | 2.0 | 8.0 | 0.00 | 0.00 | 0.00 | 28 | 1011.1 |
| 20260503232827 | 64 | 280 | 1.0 | 8.0 | 0.00 | 0.00 | 0.00 | 28 | 1011.0 |
| 20260503232327 | 64 | 208 | 1.0 | 6.0 | 0.00 | 0.00 | 0.00 | 28 | 1010.9 |
| 20260503230824 | 64 | 23 | 3.0 | 8.0 | 0.00 | 0.00 | 0.00 | 27 | 1010.9 |
| 20260503225823 | 64 | 339 | 2.0 | 9.0 | 0.00 | 0.00 | 0.00 | 27 | 1010.9 |
| 20260503225322 | 65 | 327 | 2.0 | 9.0 | 0.00 | 0.00 | 0.00 | 27 | 1010.9 |
| 20260503224825 | 64 | 280 | 3.0 | 10.0 | 0.00 | 0.00 | 0.00 | 27 | 1011.0 |
| 20260503224324 | 64 | 268 | 3.0 | 10.0 | 0.00 | 0.00 | 0.00 | 27 | 1011.1 |
| 20260503223824 | 65 | 354 | 2.0 | 6.0 | 0.00 | 0.00 | 0.00 | 27 | 1011.0 |
| 20260503223324 | 65 | 8 | 2.0 | 8.0 | 0.00 | 0.00 | 0.00 | 27 | 1011.0 |
| 20260503222320 | 65 | 249 | 2.0 | 8.0 | 0.00 | 0.00 | 0.00 | 27 | 1011.0 |
| 20260503221818 | 65 | 295 | 3.0 | 8.0 | 0.00 | 0.00 | 0.00 | 27 | 1011.1 |
| 20260503221318 | 65 | 255 | 2.0 | 8.0 | 0.00 | 0.00 | 0.00 | 26 | 1011.1 |
| 20260503220817 | 65 | 340 | 2.0 | 8.0 | 0.00 | 0.00 | 0.00 | 27 | 1011.1 |
| 20260503220317 | 64 | 341 | 3.0 | 11.0 | 0.00 | 0.00 | 0.00 | 27 | 1011.1 |
| 20260503215814 | 64 | 304 | 4.0 | 12.0 | 0.00 | 0.00 | 0.00 | 27 | 1011.1 |
| 20260503215312 | 64 | 37 | 3.0 | 12.0 | 0.00 | 0.00 | 0.00 | 27 | 1011.2 |
| 20260503214812 | 64 | 342 | 5.0 | 13.0 | 0.00 | 0.00 | 0.00 | 28 | 1011.3 |
| 20260503214313 | 63 | 330 | 6.0 | 14.0 | 0.00 | 0.00 | 0.00 | 27 | 1011.3 |
| 20260503213811 | 64 | 15 | 4.0 | 14.0 | 0.00 | 0.00 | 0.00 | 27 | 1011.3 |
| 20260503212806 | 64 | 263 | 4.0 | 15.0 | 0.00 | 0.00 | 0.00 | 27 | 1011.1 |
| 20260503212305 | 64 | 15 | 4.0 | 14.0 | 0.00 | 0.00 | 0.00 | 27 | 1011.2 |
| 20260503211803 | 64 | 288 | 4.0 | 14.0 | 0.00 | 0.00 | 0.00 | 28 | 1011.1 |
| 20260503211306 | 64 | 315 | 3.0 | 11.0 | 0.00 | 0.00 | 0.00 | 29 | 1011.1 |
| 20260503210805 | 63 | 339 | 4.0 | 11.0 | 0.00 | 0.00 | 0.00 | 29 | 1011.1 |
| 20260503210306 | 63 | 307 | 4.0 | 11.0 | 0.00 | 0.00 | 0.00 | 28 | 1011.3 |
| 20260503205800 | 64 | 327 | 3.0 | 10.0 | 0.00 | 0.00 | 0.00 | 28 | 1011.3 |
| 20260503205258 | 64 | 345 | 3.0 | 10.0 | 0.00 | 0.00 | 0.00 | 28 | 1011.3 |
| 20260503203800 | 63 | 20 | 4.0 | 14.0 | 0.00 | 0.00 | 0.00 | 28 | 1011.4 |
| 20260503203300 | 63 | 33 | 4.0 | 14.0 | 0.00 | 0.00 | 0.00 | 29 | 1011.4 |
| 20260503202753 | 62 | 334 | 5.0 | 14.0 | 0.00 | 0.00 | 0.00 | 30 | 1011.5 |
| 20260503202253 | 63 | 307 | 4.0 | 10.0 | 0.00 | 0.00 | 0.00 | 29 | 1011.6 |
| 20260503201755 | 62 | 15 | 6.0 | 14.0 | 0.00 | 0.00 | 0.00 | 29 | 1011.6 |
| 20260503201254 | 62 | 35 | 6.0 | 14.0 | 0.00 | 0.00 | 0.00 | 29 | 1011.8 |
| 20260503200753 | 63 | 69 | 4.0 | 13.0 | 0.00 | 0.00 | 0.00 | 28 | 1011.9 |
| 20260503200252 | 62 | 302 | 4.0 | 13.0 | 0.00 | 0.00 | 0.00 | 29 | 1011.8 |
| 20260503195748 | 62 | 328 | 4.0 | 13.0 | 0.00 | 0.00 | 0.00 | 30 | 1011.9 |
| 20260503195248 | 62 | 25 | 4.0 | 10.0 | 0.00 | 0.00 | 0.00 | 30 | 1011.8 |
| 20260503194748 | 62 | 348 | 5.0 | 16.0 | 0.00 | 0.00 | 0.00 | 30 | 1012.0 |
| 20260503194247 | 62 | 41 | 5.0 | 16.0 | 0.00 | 0.00 | 0.00 | 31 | 1012.1 |
| 20260503193745 | 62 | 316 | 4.0 | 13.0 | 0.00 | 0.00 | 0.00 | 31 | 1012.2 |
| 20260503193245 | 61 | 274 | 5.0 | 11.0 | 0.00 | 0.00 | 0.00 | 32 | 1012.2 |
| 20260503192740 | 61 | 246 | 6.0 | 16.0 | 0.00 | 0.00 | 0.00 | 32 | 1012.3 |
| 20260503191740 | 61 | 4 | 6.0 | 17.0 | 0.00 | 0.00 | 0.00 | 32 | 1012.4 |
| 20260503191240 | 61 | 114 | 6.0 | 16.0 | 0.00 | 0.00 | 0.00 | 32 | 1012.6 |
| 20260503190241 | 61 | 312 | 4.0 | 17.0 | 0.00 | 0.00 | 0.00 | 32 | 1012.7 |
| 20260503185733 | 60 | 270 | 5.0 | 11.0 | 0.00 | 0.00 | 0.00 | 33 | 1012.6 |
| 20260503185232 | 60 | 275 | 6.0 | 16.0 | 0.00 | 0.00 | 0.00 | 33 | 1012.7 |
| 20260503184733 | 61 | 127 | 6.0 | 16.0 | 0.00 | 0.00 | 0.00 | 33 | 1012.8 |
| 20260503184233 | 61 | 248 | 5.0 | 15.0 | 0.00 | 0.00 | 0.00 | 32 | 1013.0 |
| 20260503183232 | 60 | 239 | 4.0 | 13.0 | 0.00 | 0.00 | 0.00 | 33 | 1012.9 |
| 20260503182728 | 60 | 183 | 5.0 | 17.0 | 0.00 | 0.00 | 0.00 | 33 | 1013.0 |
| 20260503182227 | 59 | 160 | 6.0 | 17.0 | 0.00 | 0.00 | 0.00 | 33 | 1013.1 |
| 20260503181728 | 60 | 320 | 5.0 | 15.0 | 0.00 | 0.00 | 0.00 | 33 | 1013.1 |
| 20260503180730 | 59 | 10 | 5.0 | 14.0 | 0.00 | 0.00 | 0.00 | 33 | 1013.2 |
| 20260503180229 | 59 | 302 | 5.0 | 13.0 | 0.00 | 0.00 | 0.00 | 33 | 1013.2 |
| 20260503175730 | 60 | 276 | 5.0 | 12.0 | 0.00 | 0.00 | 0.00 | 33 | 1013.3 |
| 20260503175226 | 59 | 217 | 5.0 | 15.0 | 0.00 | 0.00 | 0.00 | 34 | 1013.2 |
| 20260503174727 | 59 | 36 | 5.0 | 15.0 | 0.00 | 0.00 | 0.00 | 33 | 1013.3 |
| 20260503174227 | 59 | 307 | 4.0 | 12.0 | 0.00 | 0.00 | 0.00 | 33 | 1013.5 |
| 20260503173728 | 59 | 15 | 5.0 | 11.0 | 0.00 | 0.00 | 0.00 | 34 | 1013.4 |
| 20260503173227 | 58 | 325 | 5.0 | 17.0 | 0.00 | 0.00 | 0.00 | 34 | 1013.4 |
| 20260503172728 | 58 | 309 | 5.0 | 17.0 | 0.00 | 0.00 | 0.00 | 33 | 1013.6 |
| 20260503172227 | 58 | 22 | 4.0 | 15.0 | 0.00 | 0.00 | 0.00 | 33 | 1013.6 |
| 20260503171724 | 58 | 97 | 5.0 | 15.0 | 0.00 | 0.00 | 0.00 | 34 | 1013.6 |
| 20260503171227 | 58 | 174 | 6.0 | 17.0 | 0.00 | 0.00 | 0.00 | 33 | 1013.6 |
| 20260503170725 | 58 | 68 | 4.0 | 17.0 | 0.00 | 0.00 | 0.00 | 33 | 1013.6 |
| 20260503170225 | 58 | 283 | 3.0 | 14.0 | 0.00 | 0.00 | 0.00 | 35 | 1013.5 |
| 20260503160218 | 56 | 18 | 5.0 | 14.0 | 0.00 | 0.00 | 0.00 | 35 | 1014.1 |
| 20260503150711 | 53 | 316 | 4.0 | 15.0 | 0.00 | 0.00 | 0.00 | 39 | 1014.3 |
| 20260503150212 | 53 | 342 | 5.0 | 13.0 | 0.00 | 0.00 | 0.00 | 39 | 1014.2 |
| 20260503140158 | 51 | 296 | 5.0 | 16.0 | 0.00 | 0.00 | 0.00 | 43 | 1014.4 |
| 20260503131149 | 49 | 352 | 4.0 | 13.0 | 0.00 | 0.00 | 0.00 | 48 | 1014.6 |
| 20260503130648 | 49 | 18 | 5.0 | 12.0 | 0.00 | 0.00 | 0.00 | 49 | 1014.8 |
| 20260503120139 | 47 | 301 | 5.0 | 15.0 | 0.00 | 0.00 | 0.00 | 59 | 1014.3 |
| 20260503110635 | 45 | 340 | 1.0 | 5.0 | 0.00 | 0.00 | 0.00 | 66 | 1013.5 |
| 20260503110134 | 44 | 324 | 1.0 | 4.0 | 0.00 | 0.00 | 0.00 | 66 | 1013.5 |
| 20260503100121 | 44 | 337 | 2.0 | 8.0 | 0.00 | 0.00 | 0.00 | 67 | 1012.6 |
| 20260503090107 | 45 | 73 | 1.0 | 8.0 | 0.00 | 0.00 | 0.00 | 67 | 1012.0 |
| 20260503081603 | 45 | 340 | 2.0 | 7.0 | 0.00 | 0.00 | 0.00 | 66 | 1011.8 |
| 20260503081105 | 45 | 331 | 2.0 | 6.0 | 0.00 | 0.00 | 0.00 | 66 | 1011.8 |
| 20260503072555 | 46 | 8 | 2.0 | 12.0 | 0.00 | 0.00 | 0.00 | 63 | 1011.4 |
| 20260503072056 | 47 | 308 | 2.0 | 12.0 | 0.00 | 0.00 | 0.00 | 63 | 1011.3 |
| 20260503071557 | 47 | 24 | 2.0 | 9.0 | 0.00 | 0.00 | 0.00 | 64 | 1011.3 |
| 20260503070552 | 47 | 348 | 3.0 | 8.0 | 0.00 | 0.00 | 0.00 | 63 | 1011.1 |
| 20260503055044 | 49 | 13 | 1.0 | 6.0 | 0.00 | 0.00 | 0.00 | 58 | 1010.9 |
| 20260503054046 | 49 | 326 | 2.0 | 7.0 | 0.00 | 0.00 | 0.00 | 56 | 1010.9 |
| 20260503053540 | 49 | 20 | 2.0 | 7.0 | 0.00 | 0.00 | 0.00 | 56 | 1010.9 |
| 20260503053040 | 49 | 283 | 2.0 | 7.0 | 0.00 | 0.00 | 0.00 | 56 | 1010.9 |
| 20260503052540 | 49 | 341 | 1.0 | 7.0 | 0.00 | 0.00 | 0.00 | 56 | 1011.0 |
| 20260503052039 | 50 | 32 | 1.0 | 8.0 | 0.00 | 0.00 | 0.00 | 57 | 1010.9 |
| 20260503051541 | 50 | 340 | 2.0 | 9.0 | 0.00 | 0.00 | 0.00 | 56 | 1010.9 |
| 20260503051042 | 50 | 306 | 1.0 | 9.0 | 0.00 | 0.00 | 0.00 | 56 | 1011.0 |
| 20260503050035 | 50 | 337 | 1.0 | 4.0 | 0.00 | 0.00 | 0.00 | 56 | 1010.9 |
| 20260503045537 | 50 | 346 | 2.0 | 9.0 | 0.00 | 0.00 | 0.00 | 56 | 1011.0 |
| 20260503045035 | 50 | 50 | 3.0 | 9.0 | 0.00 | 0.00 | 0.00 | 56 | 1011.0 |
| 20260503044037 | 51 | 29 | 1.0 | 5.0 | 0.00 | 0.00 | 0.00 | 56 | 1011.0 |
| 20260503043531 | 51 | 339 | 1.0 | 5.0 | 0.00 | 0.00 | 0.00 | 56 | 1011.0 |
| 20260503043031 | 51 | 8 | 1.0 | 5.0 | 0.00 | 0.00 | 0.00 | 55 | 1011.1 |
| 20260503042531 | 51 | 15 | 2.0 | 13.0 | 0.00 | 0.00 | 0.00 | 54 | 1011.1 |
| 20260503042032 | 51 | 12 | 3.0 | 13.0 | 0.00 | 0.00 | 0.00 | 54 | 1011.1 |
| 20260503041533 | 51 | 25 | 2.0 | 9.0 | 0.00 | 0.00 | 0.00 | 54 | 1011.1 |
| 20260503040527 | 52 | 20 | 2.0 | 9.0 | 0.00 | 0.00 | 0.00 | 53 | 1011.0 |
| 20260503040027 | 52 | 22 | 2.0 | 10.0 | 0.00 | 0.00 | 0.00 | 53 | 1011.1 |
| 20260503035529 | 52 | 293 | 3.0 | 10.0 | 0.00 | 0.00 | 0.00 | 53 | 1011.1 |
| 20260503035026 | 52 | 340 | 3.0 | 10.0 | 0.00 | 0.00 | 0.00 | 53 | 1011.0 |
| 20260503034527 | 52 | 15 | 4.0 | 12.0 | 0.00 | 0.00 | 0.00 | 52 | 1011.0 |
| 20260503034027 | 53 | 36 | 5.0 | 15.0 | 0.00 | 0.00 | 0.00 | 52 | 1011.0 |
| 20260503033522 | 53 | 22 | 5.0 | 15.0 | 0.00 | 0.00 | 0.00 | 52 | 1010.9 |
| 20260503033025 | 53 | 6 | 4.0 | 15.0 | 0.00 | 0.00 | 0.00 | 51 | 1010.8 |
| 20260503032524 | 53 | 11 | 4.0 | 11.0 | 0.00 | 0.00 | 0.00 | 50 | 1010.7 |
| 20260503031524 | 54 | 311 | 3.0 | 10.0 | 0.00 | 0.00 | 0.00 | 50 | 1010.8 |
| 20260503031025 | 54 | 23 | 3.0 | 13.0 | 0.00 | 0.00 | 0.00 | 49 | 1010.7 |
| 20260503030519 | 54 | 6 | 3.0 | 13.0 | 0.00 | 0.00 | 0.00 | 49 | 1010.7 |
| 20260503030020 | 54 | 333 | 2.0 | 10.0 | 0.00 | 0.00 | 0.00 | 49 | 1010.7 |
| 20260503025521 | 54 | 336 | 2.0 | 10.0 | 0.00 | 0.00 | 0.00 | 49 | 1010.7 |
| 20260503024519 | 54 | 359 | 2.0 | 11.0 | 0.00 | 0.00 | 0.00 | 48 | 1010.7 |
| 20260503024020 | 54 | 22 | 3.0 | 11.0 | 0.00 | 0.00 | 0.00 | 47 | 1010.7 |